Location: Wiesbaden
(50.0830°N, 8.2500°E)
Time: 07:27:07
(UTC+02:00)

ISS - Pass Details

Date: 22 May 2019
Orbit: 408 x 418 km, 51.6° (Epoch: 27 May)

Event Time Altitude Azimuth Distance (km) Brightness Sun altitude
Rises 02:41:49 0° 287° (WNW) 2,363 0.0 -17.5°
Reaches altitude 10° 02:44:00 10° 279° (W) 1,499 -1.1 -17.4°
Enters shadow 02:44:39 14° 274° (W) 1,260 -1.5 -17.4°
